www.pogodaiklimat.ru

Погода и климат >> Архив погоды >> Боливия >> Сан-Игнасио


ПОГОДА в Сан-Игнасио

  • Прогноз погоды в Сан-Игнасио
  • Монитор погоды в Сан-Игнасио

АРХИВ ПОГОДЫ в Сан-Игнасио

Время (UTC), дата Ветер
(напр.,м/с)
 
Видим.   Явления Облачность Т
(С)
Тd
(С)
f
(%)
Тe
(С)
Тes
(С)
Комфортность P
(гПа)
Po
(гПа)
Тmin
(С)
Tmax
(С)
R
(мм)
R24
(мм)
S
(см)
12 10.06 штиль 0 30 км 6/0
[Ci sp]
+20.4 +19.1 92 +24 +27 комфорт 1013.4 967.0 +16.6
15 10.06 СЗ 3 30 км 3/3 500 м
[Cu med, cong]
+29.0 +20.9 62 +36 +43 очень
душно
1013.8 967.5
21 10.06 С 3 30 км 4/4 500 м
[Cu med, cong]
+29.0 +20.2 59 +35 +36 очень
душно
1010.3 964.0 +32.8
12 11.06 штиль 0 30 км ясно +20.4 +19.2 93 +24 +27 комфорт 1013.8 967.0 +15.7
15 11.06 СЗ 3 30 км ясно +29.8 +21.2 60 +37 +47 очень
душно
1015.0 967.5
18 11.06 С 3 30 км 5/5 500 м
[Cu med, cong]
+32.0 +19.2 47 +38 +41 очень
душно
1011.3 964.6
21 11.06 С 3 30 км 4/4 500 м
[Cu med, cong]
+31.2 +19.1 49 +37 +37 очень
душно
1010.6 963.7 +33.0
12 12.06 штиль 0 30 км ясно +18.5 +17.2 92 +19 +22 1013.4 966.8 +16.4
15 12.06 С 4 30 км ясно +30.0 +20.3 56 +37 +45 очень
душно
1014.2 967.3
18 12.06 СЗ 3 30 км 4/4 500 м
[Cu med, cong]
+32.0 +17.5 42 +36 +41 очень
душно
1011.8 964.0
21 12.06 С 3 30 км 4/4 500 м
[Cu med, cong]
+30.8 +17.4 45 +35 +35 очень
душно
1012.0 963.8 +33.0
12 13.06 штиль 0 30 км ясно +20.3 +19.2 93 +24 +27 комфорт 1013.4 966.6 +15.5
15 13.06 С 4 30 км ясно +30.0 +19.8 54 +36 +44 очень
душно
1015.0 967.5
18 13.06 С 3 30 км 5/5 500 м
[Cu med, cong]
+31.3 +17.8 45 +36 +40 очень
душно
1012.2 965.4
21 13.06 СЗ 2 30 км 4/4 500 м
[Cu med, cong]
+30.8 +17.2 44 +35 +35 очень
душно
1010.9 964.2 +32.5
12 14.06 штиль 0 30 км ясно +21.2 +19.5 90 +26 +29 душно 1014.1 967.3 +18.0
15 14.06 С 3 30 км 8/0
[Ci]
+30.0 +18.5 50 +35 +42 очень
душно
1014.6 967.5
18 14.06 С 4 30 км 8/4 500 м
[Cu hum Ci]
+32.6 +16.2 37 +35 +39 душно 1012.4 965.6
21 14.06 С 3 30 км 8/5 500 м
[Cu med, cong Ci]
+31.0 +16.0 40 +34 +34 душно 1010.5 964.0 +32.6
12 15.06 штиль 0 30 км 6/0
[Ci sp]
+20.0 +18.5 91 +23 +26 комфорт 1013.3 956.5 +16.4
15 15.06 С 6 30 км 8/0
[Ci sp]
+30.6 +19.0 50 +36 +40 очень
душно
1013.6 966.7
18 15.06 СЗ 4 30 км 5/5 500 м
[Cu med, cong]
+33.6 +16.6 36 +36 +40 очень
душно
1011.3 964.6
21 15.06 С 3 30 км 4/4 500 м
[Cu med, cong]
+31.4 +16.0 40 +34 +35 душно 1010.4 963.7 +34.4
12 16.06 штиль 0 30 км ясно +20.0 +17.7 87 +23 +26 комфорт 1016.3 969.5 +16.1
15 16.06 штиль 0 30 км 5/5 500 м
[Cu med, cong]
+32.0 +20.1 49 +38 +46 очень
душно
1016.9 969.9
18 16.06 С 2 30 км 5/5 500 м
[Cu med, cong]
+34.0 +19.2 42 +39 +44 очень
душно
1013.4 966.5
21 16.06 штиль 0 30 км 4/4 500 м
[Cu med, cong]
+33.4 +18.6 42 +38 +39 очень
душно
1012.6 965.6 +35.0

 

Местоположение метеостанции Сан-Игнасио (Боливия): широта -16.38 долгота -60.96 высота над уровнем моря 413 м.

В архиве по умолчанию представлена погода в Сан-Игнасио за последнюю неделю. Архивные данные за месяц целиком и за предыдущие месяцы, начиная с января 2011 года, Вы можете получить, выбрав интересующий диапазон дат из раскрывающегося списка и нажав кнопку "Ввод!".


*Определитесь, кто Вы:
робот инопланетянин человек

Внимание! Время в таблицах - всемирное. Для получения местного времени необходимо прибавить поправку, которая равна -4 ч.

Смотрите также архив погоды в соседних городах и на ближайших метеорологических станциях:

Погода в Консепсьоне (Боливия) (115 км)
Погода в Сан Хосе де Чикитосе (Боливия) (160 км)
Погода в Сан-Хавьере (Боливия) (161 км)
Погода на Ферме Vila Bela da S Trind (Мату-Гросу, Бразилия) (187 км)
Погода в Понтис-и-Ласерде (Мату-Гросу, Бразилия) (213 км)
Погода в Ассенсьон де Гуарае (Боливия) (241 км)
Погода в Роборе (Боливия) (250 км)
Погода в Виру-Виру (Боливия) (269 км)
Погода в Сан-Матиасе (Боливия) (275 км)
Погода в Санта-Крусе (Боливия) (284 км)

Пояснения к столбцам:

Ветер - указаны скорость ветра в м/с - средняя за 10 мин, порывы в срок и между сроками (в фигурных скобках) и направление, откуда дует ветер: С - северный, СВ - северо-восточный, В - восточный, ЮВ - юго-восточный, Ю - южный, ЮЗ - юго-западный, З - западный, СЗ - северо-западный.
Видимость - горизонтальная дальность видимости в метрах или километрах. При видимости от 1 до 10 км при отсутствии осадков обычно наблюдается дымка, при ухудшении видимости до 1 км и менее - туман. В сухую погоду видимость может ухудшаться дымом, пылью или мглою.
Явления - указаны атмосферные явления, наблюдавшиеся в срок или в последний час перед сроком; фигурными скобками обозначены явления, наблюдавшиеся между сроками (за 1-3 часа до срока); квадратными скобками обозначены град или гололедные отложения с указанием их диаметра в мм.
Облачность - указаны через наклонную черту общая и нижняя облачность в баллах и высота нижней границы облаков в метрах; квадратными скобками обозначены формы облаков: Ci - перистые, Cs - перисто-слоистые, Cc - перисто-кучевые, Ac - высококучевые, As - высокослоистые, Sc - слоисто-кучевые, Ns - слоисто-дождевые, Cu - кучевые, Cb - кучево-дождевые. Подробнее классификацию облаков см. в Атласе облаков (PDF).
T - Температура воздуха - температура, измеренная на высоте 2 м над землей.
Td - Температура точки росы - температура, при понижении до которой содержащийся в воздухе водяной пар достигнет насыщения.
f - Относительная влажность воздуха - влажноcть воздуха, измеренная на высоте 2 м над землей.
Te - Эффективная температура - температура, которую ощущает одетый по сезону человек в тени. Характеристика душности погоды. При расчете учитывается влияние влажности воздуха и скорости ветра на теплоощущения человека.
Tes - Эффективная температура на солнце - температура, которую ощущает человек, с поправкой на солнечный нагрев. Характеристика знойности погоды. Зависит от высоты солнца над горизонтом, облачности и скорости ветра. Ночью, в пасмурную погоду, а также при ветре 12 м/с и более поправка равна нулю.
P - Атмосферное давление - приведенное к уровню моря атмосферное давление.
Po - Атмосферное давление - измеренное на уровне метеостанции атмосферное давление.
Tmin - Минимальная температура - минимум температуры воздуха на высоте 2 м над землей.
Tmax - Максимальная температура - максимум температуры воздуха на высоте 2 м над землей.
R - Количество осадков - Количество выпавших осадков за период времени, мм. При наведении курсора мыши на число - период времени, за который выпало указанное количество осадков.
R24 - Количество осадков - Количество выпавших осадков за 24 часа, мм.
S - Снежный покров - Высота снежного покрова, см. При наведении курсора мыши на число - состояние снежного покрова и степень покрытия местности в баллах.